Weather in Khetovo

Russia / Arkhangel'skaya Oblast'     63°02′01″N   42°20′47″E
temp.,
°C
wind,
m/s
gust,
m/s
humid.,
%
clouds,
%
prec.,
mm/h
press.,
hPa
HPBL,
m
8 may, sat
sat800:00+5sw279265 0.3 1007183
03:00+5sw149192 0.3 1009172
06:00+6ssw2583100 0.0 1011233
09:00+10s356121 0.0 1012975
12:00+13s474699 0.1 10112154
15:00+13sse4850100 0.1 10111613
18:00+13se5954100 0.3 10101238
21:00+11se41360100 0.3 1009502
9 may, sun
sun900:00+10se41060100 0.0 1008475
03:00+9se51276100 0.2 10081226
06:00+8ese31079100 0.3 1006695
09:00+7se41090100 1.5 1005755
12:00+8s2694100 0.7 1006524
15:00+7w3693100 2.9 1007482
18:00+6nw4886100 0.9 1011750
21:00+5nw3982100 0.9 1012517
10 may, mon
mon1000:00+3w2689100 0.0 1014185
03:00+1w28895 0.0 1017180
06:00+4wsw27780 0.0 1019216
09:00+9wsw47540 0.0 1020856
12:00+12wsw584375 0.0 10212111
15:00+14wsw5836100 0.0 10222382
18:00+13sw4850100 0.0 10231736
21:00+8s287394 0.0 1023168
11 may, tue
tue1100:00+9ssw41076100 0.0 1023665
03:00+8ssw41293100 1.4 1022635
06:00+9ssw41293100 0.9 1022501
09:00+14sw4118099 0.9 1023650
12:00+18wsw596699 0.0 10231183
15:00+21wsw51155100 0.0 10231654
18:00+20wsw510565 0.0 10231270
21:00+15sw377177 0.0 1024139
12 may, wed
wed1200:00+12sw3118710 0.0 1025260
03:00+12sw41383100 0.0 1026339
06:00+14sw4127588 0.0 1026443
09:00+19wsw485399 0.0 1026843
12:00+22wsw574096 0.0 10261520
15:00+24wsw473669 0.0 10261851
18:00+23wsw35455 0.0 10261373
21:00+16sw25693 0.0 102683